ITY615 LIMC-LGTS

Flight info

Callsign ITY615
Flight time 1h 43m
Altitude 36000
Route OSKOR DCT NEVNI DCT NOBMI DCT ADOSA DCT VIC DCT AKADO DCT IXONA DCT SPL DCT GEBNI DCT MAVAR N130 ALIKO
Aircraft A320/M-SDE3FGHIRWY/LB1

Departure

Time 2026-05-07 13:42
Airport Milan Malpensa International Airport (LIMC)

Arrival

Time 2026-05-07 15:26
Airport Thessaloniki Macedonia International Airport (LGTS)
Time Latitude Longitude Altitude Speed Heading
2026-05-07 12:56 45.62706 8.71631 741 ft 0 kts 349°
2026-05-07 13:29 45.62690 8.71635 741 ft 4 kts 349°
2026-05-07 13:29 45.62663 8.71642 741 ft 4 kts 353°
2026-05-07 13:29 45.62637 8.71643 739 ft 4 kts 14°
2026-05-07 13:30 45.62620 8.71630 740 ft 1 kts 60°
2026-05-07 13:30 45.62628 8.71661 741 ft 4 kts 76°
2026-05-07 13:30 45.62632 8.71700 741 ft 4 kts 80°
2026-05-07 13:30 45.62634 8.71713 741 ft 0 kts 79°
2026-05-07 13:33 45.62640 8.71752 741 ft 10 kts 79°
2026-05-07 13:33 45.62623 8.71832 741 ft 8 kts 141°
2026-05-07 13:34 45.62551 8.71858 739 ft 16 kts 169°
2026-05-07 13:34 45.62285 8.71931 741 ft 21 kts 169°
2026-05-07 13:34 45.62138 8.71973 741 ft 22 kts 169°
2026-05-07 13:35 45.61984 8.72013 740 ft 23 kts 169°
2026-05-07 13:35 45.61824 8.72057 741 ft 24 kts 168°
2026-05-07 13:35 45.61659 8.72103 741 ft 25 kts 170°
2026-05-07 13:35 45.61488 8.72150 741 ft 25 kts 168°
2026-05-07 13:36 45.61373 8.72183 741 ft 26 kts 169°
2026-05-07 13:36 45.61195 8.72232 741 ft 26 kts 169°
2026-05-07 13:36 45.60954 8.72299 742 ft 27 kts 170°
2026-05-07 13:36 45.60777 8.72348 742 ft 18 kts 168°
2026-05-07 13:37 45.60668 8.72400 742 ft 17 kts 139°
2026-05-07 13:37 45.60637 8.72507 742 ft 18 kts 95°
2026-05-07 13:37 45.60627 8.72693 742 ft 20 kts 89°
2026-05-07 13:37 45.60610 8.72884 741 ft 20 kts 101°
2026-05-07 13:38 45.60593 8.73091 742 ft 22 kts 96°
2026-05-07 13:38 45.60647 8.73276 742 ft 22 kts 26°
2026-05-07 13:38 45.60794 8.73362 742 ft 23 kts 22°
2026-05-07 13:38 45.60954 8.73391 741 ft 24 kts 347°
2026-05-07 13:39 45.61126 8.73344 742 ft 26 kts 349°
2026-05-07 13:39 45.61306 8.73294 742 ft 27 kts 349°
2026-05-07 13:39 45.61484 8.73245 742 ft 25 kts 350°
2026-05-07 13:39 45.61608 8.73245 741 ft 15 kts 52°
2026-05-07 13:40 45.61630 8.73380 741 ft 13 kts 81°
2026-05-07 13:40 45.61606 8.73493 741 ft 12 kts 118°
2026-05-07 13:40 45.61585 8.73600 741 ft 11 kts 92°
2026-05-07 13:40 45.61592 8.73705 738 ft 10 kts 76°
2026-05-07 13:41 45.61639 8.73729 739 ft 0 kts 347°
2026-05-07 13:41 45.61647 8.73727 739 ft 8 kts 348°
2026-05-07 13:41 45.61921 8.73653 739 ft 78 kts 349°
2026-05-07 13:42 45.62667 8.73448 742 ft 138 kts 349°
2026-05-07 13:42 45.63767 8.73147 894 ft 169 kts 348°
2026-05-07 13:42 45.64912 8.73075 1600 ft 167 kts 15°
2026-05-07 13:42 45.65850 8.74056 2085 ft 179 kts 61°
2026-05-07 13:43 45.66293 8.75806 2426 ft 198 kts 72°
2026-05-07 13:43 45.67046 8.77558 2857 ft 213 kts 43°
2026-05-07 13:43 45.68226 8.78830 3677 ft 212 kts 34°
2026-05-07 13:43 45.69458 8.80026 4335 ft 220 kts 35°
2026-05-07 13:44 45.70730 8.81356 4942 ft 226 kts 38°
2026-05-07 13:44 45.71930 8.82709 5843 ft 223 kts 40°
2026-05-07 13:44 45.72840 8.84577 6271 ft 240 kts 77°
2026-05-07 13:44 45.72730 8.86945 6906 ft 245 kts 115°
2026-05-07 13:45 45.71791 8.88999 7629 ft 249 kts 128°
2026-05-07 13:45 45.70688 8.90935 8405 ft 253 kts 130°
2026-05-07 13:45 45.69554 8.92873 9226 ft 255 kts 130°
2026-05-07 13:45 45.68422 8.94854 10039 ft 258 kts 129°
2026-05-07 13:46 45.67299 8.96872 10755 ft 261 kts 128°
2026-05-07 13:46 45.66191 8.98973 11416 ft 267 kts 127°
2026-05-07 13:46 45.65202 9.01245 12106 ft 272 kts 114°
2026-05-07 13:46 45.64658 9.03876 12622 ft 286 kts 98°
2026-05-07 13:47 45.64599 9.06788 12834 ft 309 kts 89°
2026-05-07 13:47 45.64638 9.09984 13017 ft 333 kts 89°
2026-05-07 13:47 45.64669 9.13407 13169 ft 356 kts 89°
2026-05-07 13:47 45.64691 9.17034 13511 ft 371 kts 89°
2026-05-07 13:48 45.64708 9.20753 14090 ft 377 kts 89°
2026-05-07 13:48 45.64725 9.24515 14683 ft 381 kts 89°
2026-05-07 13:48 45.64739 9.28331 15287 ft 385 kts 89°
2026-05-07 13:48 45.64754 9.32178 15899 ft 389 kts 89°
2026-05-07 13:49 45.64769 9.36061 16514 ft 393 kts 89°
2026-05-07 13:49 45.64785 9.39948 17198 ft 397 kts 89°
2026-05-07 13:49 45.64799 9.43916 17794 ft 401 kts 89°
2026-05-07 13:49 45.64813 9.47923 18378 ft 405 kts 89°
2026-05-07 13:50 45.64823 9.51974 18905 ft 409 kts 89°
2026-05-07 13:50 45.64829 9.56060 19341 ft 412 kts 90°
2026-05-07 13:50 45.64833 9.60174 19883 ft 415 kts 90°
2026-05-07 13:50 45.64836 9.64320 20427 ft 418 kts 90°
2026-05-07 13:51 45.64842 9.68441 20953 ft 422 kts 90°
2026-05-07 13:51 45.64855 9.72645 21471 ft 425 kts 89°
2026-05-07 13:51 45.64874 9.76883 21980 ft 428 kts 89°
2026-05-07 13:51 45.64894 9.81146 22475 ft 431 kts 89°
2026-05-07 13:52 45.64909 9.85454 22902 ft 435 kts 90°
2026-05-07 13:52 45.64919 9.89803 23346 ft 439 kts 90°
2026-05-07 13:52 45.64925 9.94183 23752 ft 443 kts 90°
2026-05-07 13:52 45.64926 9.98605 24108 ft 446 kts 90°
2026-05-07 13:53 45.64925 10.03062 24458 ft 450 kts 90°
2026-05-07 13:53 45.64921 10.07554 24787 ft 454 kts 90°
2026-05-07 13:53 45.64917 10.12076 25122 ft 457 kts 90°
2026-05-07 13:53 45.64911 10.16647 25427 ft 461 kts 90°
2026-05-07 13:54 45.64900 10.21182 25683 ft 465 kts 90°
2026-05-07 13:54 45.64886 10.25834 25950 ft 470 kts 90°
2026-05-07 13:54 45.64869 10.30522 26238 ft 474 kts 90°
2026-05-07 13:54 45.64852 10.35265 26543 ft 477 kts 91°
2026-05-07 13:55 45.64833 10.40027 26840 ft 481 kts 90°
2026-05-07 13:55 45.64817 10.44819 27123 ft 484 kts 90°
2026-05-07 13:55 45.64802 10.49650 27412 ft 487 kts 90°
2026-05-07 13:55 45.64789 10.54445 27711 ft 489 kts 91°
2026-05-07 13:56 45.64771 10.59327 27988 ft 492 kts 91°
2026-05-07 13:56 45.64746 10.64232 28216 ft 495 kts 91°
2026-05-07 13:56 45.64715 10.69171 28436 ft 499 kts 91°
2026-05-07 13:56 45.64677 10.74148 28688 ft 502 kts 91°
2026-05-07 13:57 45.64637 10.79148 28954 ft 505 kts 91°
2026-05-07 13:57 45.64596 10.84192 29193 ft 509 kts 91°
2026-05-07 13:57 45.64554 10.89266 29453 ft 512 kts 91°
2026-05-07 13:57 45.64513 10.94368 29760 ft 513 kts 91°
2026-05-07 13:58 45.64471 10.99469 30102 ft 512 kts 91°
2026-05-07 13:58 45.64426 11.04542 30433 ft 509 kts 92°
2026-05-07 13:58 45.64380 11.09601 30753 ft 508 kts 92°
2026-05-07 13:58 45.64335 11.14645 31024 ft 507 kts 92°
2026-05-07 13:59 45.64291 11.19684 31310 ft 507 kts 92°
2026-05-07 13:59 45.64245 11.24659 31595 ft 507 kts 92°
2026-05-07 13:59 45.64197 11.29704 31881 ft 507 kts 92°
2026-05-07 13:59 45.64146 11.34748 32171 ft 507 kts 92°
2026-05-07 14:00 45.64091 11.39782 32491 ft 507 kts 92°
2026-05-07 14:00 45.64032 11.44831 32759 ft 507 kts 92°
2026-05-07 14:00 45.63969 11.49871 33027 ft 507 kts 92°
2026-05-07 14:00 45.63901 11.54910 33296 ft 507 kts 92°
2026-05-07 14:01 45.63827 11.59946 33575 ft 506 kts 94°
2026-05-07 14:01 45.63453 11.64926 33853 ft 503 kts 103°
2026-05-07 14:01 45.62596 11.69745 34096 ft 499 kts 112°
2026-05-07 14:01 45.61282 11.74316 34334 ft 494 kts 121°
2026-05-07 14:02 45.59723 11.78598 34564 ft 492 kts 122°
2026-05-07 14:02 45.58135 11.82950 34824 ft 491 kts 122°
2026-05-07 14:02 45.56560 11.87270 35068 ft 490 kts 122°
2026-05-07 14:02 45.54984 11.91583 35304 ft 489 kts 122°
2026-05-07 14:03 45.53406 11.95886 35499 ft 489 kts 122°
2026-05-07 14:03 45.51827 12.00182 35694 ft 489 kts 122°
2026-05-07 14:03 45.50249 12.04475 35893 ft 489 kts 122°
2026-05-07 14:04 45.47104 12.13003 35958 ft 489 kts 122°
2026-05-07 14:04 45.43933 12.21567 35974 ft 488 kts 123°
2026-05-07 14:05 45.40761 12.30113 35977 ft 488 kts 123°
2026-05-07 14:05 45.37576 12.38650 35974 ft 488 kts 123°
2026-05-07 14:06 45.34384 12.47173 35954 ft 488 kts 123°
2026-05-07 14:06 45.31024 12.55536 35959 ft 485 kts 128°
2026-05-07 14:07 45.27397 12.63344 35966 ft 483 kts 130°
2026-05-07 14:07 45.23605 12.71231 35946 ft 484 kts 130°
2026-05-07 14:08 45.19873 12.79207 35964 ft 486 kts 129°
2026-05-07 14:08 45.16192 12.87248 35972 ft 486 kts 129°
2026-05-07 14:09 45.12503 12.95279 35974 ft 486 kts 129°
2026-05-07 14:09 45.08808 13.03236 35989 ft 486 kts 129°
2026-05-07 14:10 45.05082 13.11219 35991 ft 486 kts 129°
2026-05-07 14:10 45.01358 13.19188 35981 ft 485 kts 129°
2026-05-07 14:11 44.97626 13.27147 35978 ft 485 kts 129°
2026-05-07 14:11 44.93896 13.35074 35988 ft 485 kts 129°
2026-05-07 14:12 44.90189 13.42952 36003 ft 485 kts 129°
2026-05-07 14:12 44.86463 13.50864 36003 ft 484 kts 129°
2026-05-07 14:13 44.82735 13.58760 36018 ft 483 kts 129°
2026-05-07 14:13 44.79036 13.66660 36026 ft 483 kts 129°
2026-05-07 14:14 44.75342 13.74561 36024 ft 482 kts 129°
2026-05-07 14:14 44.71644 13.82440 35997 ft 482 kts 129°
2026-05-07 14:15 44.67933 13.90302 36007 ft 482 kts 129°
2026-05-07 14:15 44.64241 13.98105 36011 ft 482 kts 129°
2026-05-07 14:16 44.60525 14.05944 36007 ft 482 kts 129°
2026-05-07 14:16 44.56800 14.13771 35994 ft 482 kts 129°
2026-05-07 14:17 44.53099 14.21528 35997 ft 482 kts 129°
2026-05-07 14:17 44.49370 14.29332 36002 ft 482 kts 129°
2026-05-07 14:18 44.45631 14.37142 35993 ft 482 kts 129°
2026-05-07 14:18 44.41885 14.44929 35984 ft 481 kts 129°
2026-05-07 14:19 44.38138 14.52693 36000 ft 481 kts 129°
2026-05-07 14:19 44.34412 14.60409 36003 ft 481 kts 129°
2026-05-07 14:20 44.30657 14.68155 36013 ft 481 kts 130°
2026-05-07 14:20 44.26895 14.75892 36015 ft 481 kts 130°
2026-05-07 14:21 44.23135 14.83613 36008 ft 481 kts 130°
2026-05-07 14:21 44.19366 14.91319 36007 ft 481 kts 130°
2026-05-07 14:22 44.15620 14.98976 36009 ft 481 kts 130°
2026-05-07 14:22 44.11851 15.06665 35999 ft 480 kts 130°
2026-05-07 14:23 44.08073 15.14345 36010 ft 480 kts 130°
2026-05-07 14:23 44.04290 15.22010 36016 ft 480 kts 130°
2026-05-07 14:24 44.00499 15.29649 36017 ft 480 kts 130°
2026-05-07 14:24 43.96729 15.37236 36002 ft 480 kts 130°
2026-05-07 14:25 43.92932 15.44872 36001 ft 480 kts 130°
2026-05-07 14:25 43.89129 15.52488 36009 ft 480 kts 130°
2026-05-07 14:26 43.85322 15.60100 36011 ft 480 kts 130°
2026-05-07 14:26 43.81513 15.67696 35998 ft 480 kts 130°
2026-05-07 14:27 43.78339 15.74010 36007 ft 480 kts 130°
2026-05-07 14:27 43.74529 15.81590 36021 ft 480 kts 130°
2026-05-07 14:28 43.70705 15.89165 36025 ft 480 kts 130°
2026-05-07 14:28 43.66869 15.96721 36037 ft 479 kts 130°
2026-05-07 14:29 43.63060 16.04217 36023 ft 479 kts 130°
2026-05-07 14:29 43.59229 16.11748 36043 ft 479 kts 130°
2026-05-07 14:30 43.55393 16.19271 36054 ft 479 kts 130°
2026-05-07 14:30 43.51551 16.26782 36055 ft 479 kts 131°
2026-05-07 14:31 43.48121 16.34643 36058 ft 485 kts 121°
2026-05-07 14:31 43.45052 16.42979 36043 ft 485 kts 122°
2026-05-07 14:32 43.42003 16.51203 36068 ft 485 kts 122°
2026-05-07 14:32 43.38928 16.59469 36049 ft 486 kts 122°
2026-05-07 14:33 43.35834 16.67756 36057 ft 486 kts 122°
2026-05-07 14:33 43.32740 16.76033 36049 ft 487 kts 122°
2026-05-07 14:34 43.29642 16.84315 36064 ft 487 kts 122°
2026-05-07 14:34 43.26553 16.92541 36070 ft 488 kts 122°
2026-05-07 14:35 43.23437 17.00807 36080 ft 488 kts 122°
2026-05-07 14:35 43.20311 17.09059 36065 ft 488 kts 122°
2026-05-07 14:36 43.17183 17.17320 36082 ft 488 kts 122°
2026-05-07 14:36 43.14055 17.25589 36091 ft 488 kts 122°
2026-05-07 14:37 43.10928 17.33780 36097 ft 488 kts 122°
2026-05-07 14:37 43.06195 17.46128 36077 ft 488 kts 122°
2026-05-07 14:38 43.03034 17.54353 36098 ft 488 kts 122°
2026-05-07 14:38 42.99867 17.62573 36105 ft 488 kts 122°
2026-05-07 14:39 42.96699 17.70783 36104 ft 488 kts 122°
2026-05-07 14:39 42.93547 17.78919 36095 ft 488 kts 121°
2026-05-07 14:40 42.90366 17.87095 36095 ft 487 kts 121°
2026-05-07 14:40 42.87181 17.95272 36098 ft 488 kts 121°
2026-05-07 14:41 42.83996 18.03436 36103 ft 488 kts 121°
2026-05-07 14:41 42.80799 18.11584 36102 ft 488 kts 122°
2026-05-07 14:42 42.77436 18.19586 36099 ft 486 kts 125°
2026-05-07 14:42 42.73829 18.27352 36079 ft 485 kts 127°
2026-05-07 14:43 42.70179 18.35092 36078 ft 486 kts 126°
2026-05-07 14:43 42.66609 18.42843 36078 ft 487 kts 125°
2026-05-07 14:44 42.63061 18.50672 36075 ft 486 kts 125°
2026-05-07 14:44 42.59494 18.58486 36079 ft 486 kts 126°
2026-05-07 14:45 42.55895 18.66269 36079 ft 486 kts 126°
2026-05-07 14:45 42.52287 18.74051 36089 ft 487 kts 125°
2026-05-07 14:46 42.48708 18.81774 36083 ft 486 kts 126°
2026-05-07 14:46 42.45105 18.89539 36090 ft 487 kts 126°
2026-05-07 14:47 42.41497 18.97301 36066 ft 487 kts 126°
2026-05-07 14:47 42.37900 19.05021 36069 ft 488 kts 126°
2026-05-07 14:48 42.34263 19.12786 36066 ft 488 kts 126°
2026-05-07 14:48 42.30622 19.20535 36083 ft 488 kts 125°
2026-05-07 14:49 42.26979 19.28273 36089 ft 488 kts 125°
2026-05-07 14:49 42.23336 19.36001 36094 ft 487 kts 125°
2026-05-07 14:50 42.19711 19.43679 36099 ft 487 kts 126°
2026-05-07 14:50 42.16063 19.51383 36111 ft 486 kts 125°
2026-05-07 14:51 42.12415 19.59058 36089 ft 485 kts 125°
2026-05-07 14:51 42.08767 19.66708 36087 ft 485 kts 125°
2026-05-07 14:52 42.05114 19.74359 36091 ft 486 kts 125°
2026-05-07 14:52 42.01450 19.82007 36085 ft 486 kts 126°
2026-05-07 14:53 41.97773 19.89648 36087 ft 487 kts 126°
2026-05-07 14:53 41.94091 19.97285 36088 ft 487 kts 126°
2026-05-07 14:54 41.90438 20.04868 36086 ft 486 kts 126°
2026-05-07 14:54 41.86763 20.12480 36083 ft 486 kts 126°
2026-05-07 14:55 41.83068 20.20085 36086 ft 486 kts 126°
2026-05-07 14:55 41.79367 20.27690 36067 ft 486 kts 126°
2026-05-07 14:56 41.75666 20.35294 36068 ft 488 kts 126°
2026-05-07 14:56 41.71974 20.42870 36075 ft 488 kts 126°
2026-05-07 14:57 41.68244 20.50468 36091 ft 488 kts 126°
2026-05-07 14:57 41.64633 20.58164 36097 ft 489 kts 123°
2026-05-07 14:58 41.61338 20.66160 36112 ft 490 kts 121°
2026-05-07 14:58 41.58115 20.74175 36112 ft 489 kts 121°
2026-05-07 14:59 41.54810 20.82127 36112 ft 489 kts 122°
2026-05-07 14:59 41.51450 20.90015 36118 ft 488 kts 122°
2026-05-07 15:00 41.48087 20.97880 36121 ft 488 kts 122°
2026-05-07 15:00 41.44756 21.05716 36112 ft 489 kts 122°
2026-05-07 15:01 41.41400 21.13604 36112 ft 490 kts 122°
2026-05-07 15:01 41.38030 21.21510 36123 ft 490 kts 122°
2026-05-07 15:02 41.34653 21.29406 36034 ft 491 kts 122°
2026-05-07 15:02 41.32956 21.33349 35598 ft 490 kts 122°
2026-05-07 15:02 41.31287 21.37226 35185 ft 488 kts 122°
2026-05-07 15:03 41.29602 21.41142 34774 ft 487 kts 122°
2026-05-07 15:03 41.27921 21.45046 34300 ft 487 kts 122°
2026-05-07 15:03 41.26240 21.48947 33672 ft 485 kts 122°
2026-05-07 15:03 41.24558 21.52840 33023 ft 484 kts 122°
2026-05-07 15:04 41.22882 21.56709 32404 ft 482 kts 122°
2026-05-07 15:04 41.21209 21.60566 31789 ft 481 kts 123°
2026-05-07 15:04 41.19538 21.64413 31193 ft 480 kts 123°
2026-05-07 15:04 41.17872 21.68243 30600 ft 479 kts 123°
2026-05-07 15:05 41.16206 21.72079 29987 ft 477 kts 123°
2026-05-07 15:05 41.14557 21.75881 29316 ft 473 kts 123°
2026-05-07 15:05 41.12941 21.79607 28518 ft 470 kts 123°
2026-05-07 15:05 41.11313 21.83347 27726 ft 466 kts 123°
2026-05-07 15:06 41.09686 21.87063 26943 ft 463 kts 123°
2026-05-07 15:06 41.08064 21.90742 26192 ft 461 kts 124°
2026-05-07 15:06 41.06236 21.94193 25460 ft 455 kts 130°
2026-05-07 15:06 41.04331 21.97532 24750 ft 452 kts 130°
2026-05-07 15:07 41.02443 22.00848 24059 ft 450 kts 130°
2026-05-07 15:07 41.00563 22.04151 23310 ft 448 kts 130°
2026-05-07 15:07 40.98687 22.07445 22508 ft 447 kts 130°
2026-05-07 15:07 40.96819 22.10725 21776 ft 445 kts 130°
2026-05-07 15:08 40.94983 22.13948 21160 ft 441 kts 130°
2026-05-07 15:08 40.93140 22.17174 20560 ft 437 kts 130°
2026-05-07 15:08 40.91311 22.20368 19967 ft 434 kts 130°
2026-05-07 15:08 40.89492 22.23540 19400 ft 431 kts 130°
2026-05-07 15:09 40.87684 22.26693 18814 ft 430 kts 130°
2026-05-07 15:09 40.85870 22.29855 18069 ft 432 kts 130°
2026-05-07 15:09 40.84056 22.33012 17275 ft 433 kts 130°
2026-05-07 15:09 40.82230 22.36182 16498 ft 432 kts 130°
2026-05-07 15:10 40.80448 22.39282 15921 ft 414 kts 130°
2026-05-07 15:10 40.78735 22.42265 15483 ft 404 kts 130°
2026-05-07 15:10 40.77072 22.45168 15031 ft 399 kts 129°
2026-05-07 15:10 40.75485 22.48158 14596 ft 396 kts 126°
2026-05-07 15:11 40.73994 22.51200 14176 ft 394 kts 124°
2026-05-07 15:11 40.72552 22.54269 13734 ft 392 kts 124°
2026-05-07 15:11 40.71132 22.57324 13267 ft 389 kts 124°
2026-05-07 15:11 40.69715 22.60349 12796 ft 385 kts 124°
2026-05-07 15:12 40.68292 22.63324 12340 ft 381 kts 126°
2026-05-07 15:12 40.66550 22.65882 11887 ft 371 kts 145°
2026-05-07 15:12 40.64362 22.67544 11446 ft 359 kts 163°
2026-05-07 15:12 40.61960 22.68234 11010 ft 348 kts 181°
2026-05-07 15:13 40.59588 22.67970 10576 ft 338 kts 197°
2026-05-07 15:13 40.57356 22.67167 10155 ft 336 kts 197°
2026-05-07 15:13 40.55072 22.66583 9686 ft 322 kts 192°
2026-05-07 15:13 40.52926 22.66316 9228 ft 307 kts 186°
2026-05-07 15:14 40.50839 22.66317 8838 ft 292 kts 181°
2026-05-07 15:14 40.48844 22.66551 8488 ft 286 kts 176°
2026-05-07 15:14 40.46894 22.66998 8143 ft 284 kts 171°
2026-05-07 15:14 40.45625 22.67410 7918 ft 283 kts 167°
2026-05-07 15:15 40.43139 22.68524 7453 ft 282 kts 161°
2026-05-07 15:15 40.41948 22.69208 7230 ft 281 kts 158°
2026-05-07 15:15 40.40220 22.70392 6893 ft 279 kts 153°
2026-05-07 15:15 40.38583 22.71750 6559 ft 277 kts 148°
2026-05-07 15:16 40.37049 22.73270 6221 ft 275 kts 143°
2026-05-07 15:16 40.35648 22.74916 5992 ft 264 kts 138°
2026-05-07 15:16 40.34420 22.76613 5765 ft 248 kts 134°
2026-05-07 15:16 40.33335 22.78339 5560 ft 244 kts 129°
2026-05-07 15:17 40.32354 22.80143 5371 ft 242 kts 125°
2026-05-07 15:17 40.31495 22.82003 5189 ft 241 kts 121°
2026-05-07 15:17 40.30735 22.83956 4983 ft 238 kts 117°
2026-05-07 15:17 40.30092 22.85929 4782 ft 232 kts 112°
2026-05-07 15:18 40.29567 22.87909 4572 ft 227 kts 109°
2026-05-07 15:18 40.29153 22.89882 4358 ft 222 kts 105°
2026-05-07 15:18 40.28847 22.91839 4193 ft 217 kts 101°
2026-05-07 15:18 40.28648 22.93777 4040 ft 212 kts 97°
2026-05-07 15:19 40.28542 22.95677 3908 ft 206 kts 94°
2026-05-07 15:19 40.28524 22.97545 3777 ft 204 kts 90°
2026-05-07 15:19 40.28594 22.99399 3588 ft 204 kts 87°
2026-05-07 15:19 40.28871 23.01205 3407 ft 203 kts 66°
2026-05-07 15:20 40.29735 23.02577 3264 ft 195 kts 36°
2026-05-07 15:20 40.30925 23.03217 3187 ft 178 kts
2026-05-07 15:20 40.32084 23.03127 3181 ft 160 kts 347°
2026-05-07 15:20 40.33150 23.02842 3218 ft 154 kts 348°
2026-05-07 15:21 40.34188 23.02570 3203 ft 150 kts 348°
2026-05-07 15:21 40.35211 23.02301 3202 ft 150 kts 348°
2026-05-07 15:21 40.36230 23.02032 3202 ft 149 kts 348°
2026-05-07 15:21 40.37252 23.01763 3157 ft 151 kts 348°
2026-05-07 15:22 40.38271 23.01464 2919 ft 149 kts 346°
2026-05-07 15:22 40.39272 23.01143 2705 ft 147 kts 346°
2026-05-07 15:22 40.40265 23.00824 2494 ft 147 kts 346°
2026-05-07 15:22 40.41253 23.00508 2276 ft 146 kts 346°
2026-05-07 15:23 40.42235 23.00193 2065 ft 145 kts 347°
2026-05-07 15:23 40.43216 22.99881 1848 ft 145 kts 347°
2026-05-07 15:23 40.44182 22.99573 1630 ft 144 kts 347°
2026-05-07 15:23 40.45155 22.99263 1398 ft 143 kts 347°
2026-05-07 15:24 40.46124 22.98954 1181 ft 143 kts 347°
2026-05-07 15:24 40.47088 22.98648 964 ft 142 kts 346°
2026-05-07 15:24 40.48046 22.98348 735 ft 140 kts 346°
2026-05-07 15:24 40.48989 22.98058 539 ft 138 kts 344°
2026-05-07 15:25 40.49920 22.97749 315 ft 138 kts 344°
2026-05-07 15:25 40.50839 22.97458 115 ft 137 kts 344°
2026-05-07 15:25 40.51733 22.97174 29 ft 120 kts 347°
2026-05-07 15:25 40.52362 22.96974 28 ft 56 kts 347°
2026-05-07 15:26 40.52602 22.96900 29 ft 24 kts 349°
2026-05-07 15:26 40.52678 22.96956 30 ft 11 kts 69°
2026-05-07 15:26 40.52685 22.97033 29 ft 7 kts 107°
2026-05-07 15:26 40.52640 22.97068 29 ft 10 kts 163°
2026-05-07 15:27 40.52566 22.97086 29 ft 10 kts 168°
2026-05-07 15:27 40.52499 22.97106 29 ft 9 kts 164°
2026-05-07 15:27 40.52439 22.97130 28 ft 8 kts 164°
2026-05-07 15:27 40.52390 22.97160 28 ft 7 kts 140°
2026-05-07 15:28 40.52383 22.97217 28 ft 6 kts 77°
2026-05-07 15:28 40.52392 22.97269 28 ft 6 kts 77°
2026-05-07 15:28 40.52401 22.97323 28 ft 7 kts 85°
2026-05-07 15:28 40.52377 22.97384 28 ft 9 kts 134°
2026-05-07 15:29 40.52335 22.97440 28 ft 8 kts 135°
2026-05-07 15:29 40.52320 22.97497 28 ft 6 kts 63°
2026-05-07 15:29 40.52343 22.97530 28 ft 2 kts 44°
2026-05-07 15:29 40.52348 22.97536 28 ft 0 kts 44°